,,,PA_Meas_PMT16A,,PR_Meas_QMR101_102,,RH_Meas_QMH101,,SR_Meas_QMS101,,TA_Meas_QMH101,,GenWind,,GenWind,
date,time,status,PA,status,PR,status,RH,status,SR,status,TA,status,DirAvg,status,SpdAvg,
2010-08-15, 00:00:04,VALID,1001.03,VALID,0,VALID,88.0916,VALID,0,VALID,23.3695,VALID,18,VALID,1.05273,
2010-08-15, 00:01:04,VALID,1001.02,VALID,0,VALID,88.2747,VALID,0,VALID,23.3287,VALID,17,VALID,1.15937,
2010-08-15, 00:02:04,VALID,1001.02,VALID,0,VALID,88.3815,VALID,0,VALID,23.3305,VALID,22,VALID,1.4957,
2010-08-15, 00:03:04,VALID,1001.01,VALID,0,VALID,88.5799,VALID,0,VALID,23.311,VALID,18,VALID,1.54336,
2010-08-15, 00:04:04,VALID,1001.01,VALID,0,VALID,88.7706,VALID,0,VALID,23.311,VALID,13,VALID,1.49375,
2010-08-15, 00:05:04,VALID,1000.96,VALID,0,VALID,88.5265,VALID,0,VALID,23.311,VALID,355,VALID,1.37539,
2010-08-15, 00:06:04,VALID,1000.92,VALID,0,VALID,88.5875,VALID,0,VALID,23.311,VALID,359,VALID,0.908984,
2010-08-15, 00:07:04,VALID,1000.89,VALID,0,VALID,88.5951,VALID,0,VALID,23.2897,VALID,340,VALID,1.29336,
2010-08-15, 00:08:04,VALID,1000.87,VALID,0,VALID,88.6486,VALID,0,VALID,23.35,VALID,312,VALID,1.17344,
2010-08-15, 00:09:04,VALID,1000.86,VALID,0,VALID,88.7401,VALID,0,VALID,23.3695,VALID,302,VALID,1.50859,
2010-08-15, 00:10:04,VALID,1000.83,VALID,0,VALID,88.763,VALID,0,VALID,23.4085,VALID,317,VALID,1.27344,
2010-08-15, 00:11:04,VALID,1000.86,VALID,0,VALID,88.7554,VALID,0,VALID,23.4475,VALID,267,VALID,0.485156,
2010-08-15, 00:12:04,VALID,1000.85,VALID,0,VALID,88.8774,VALID,0,VALID,23.4671,VALID,296,VALID,1.27578,
2010-08-15, 00:13:04,VALID,1000.84,VALID,0,VALID,88.7783,VALID,0,VALID,23.5451,VALID,293,VALID,1.30469,
2010-08-15, 00:14:04,VALID,1000.77,VALID,0,VALID,88.5112,VALID,0,VALID,23.6019,VALID,327,VALID,1.63945,
2010-08-15, 00:15:04,VALID,1000.8,VALID,0,VALID,88.2747,VALID,0,VALID,23.6622,VALID,313,VALID,1.58086,
2010-08-15, 00:16:04,VALID,1000.77,VALID,0,VALID,88.0763,VALID,0,VALID,23.6817,VALID,321,VALID,0.609766,
2010-08-15, 00:17:04,VALID,1000.8,VALID,0,VALID,88.0992,VALID,0,VALID,23.6622,VALID,314,VALID,0.389062,
2010-08-15, 00:18:04,VALID,1000.77,VALID,0,VALID,88.3052,VALID,0,VALID,23.6622,VALID,314,VALID,0.619922,
2010-08-15, 00:19:04,VALID,1000.79,VALID,0,VALID,88.4197,VALID,0,VALID,23.6232,VALID,314,VALID,0.0945313,
2010-08-15, 00:20:04,VALID,1000.8,VALID,0,VALID,88.6333,VALID,0,VALID,23.5646,VALID,314,VALID,0.241406,
2010-08-15, 00:21:04,VALID,1000.79,VALID,0,VALID,88.7325,VALID,0,VALID,23.5451,VALID,321,VALID,0.641016,
2010-08-15, 00:22:04,VALID,1000.75,VALID,0,VALID,88.7401,VALID,0,VALID,23.5061,VALID,15,VALID,0.956641,
2010-08-15, 00:23:04,VALID,1000.75,VALID,0,VALID,88.4426,VALID,0,VALID,23.4653,VALID,23,VALID,1.01836,
2010-08-15, 00:24:04,VALID,1000.79,VALID,0,VALID,88.2976,VALID,0,VALID,23.4263,VALID,14,VALID,0.475391,
2010-08-15, 00:25:04,VALID,1000.78,VALID,0,VALID,88.4502,VALID,0,VALID,23.4085,VALID,72,VALID,0.758984,
2010-08-15, 00:26:04,VALID,1000.8,VALID,0,VALID,88.4883,VALID,0,VALID,23.389,VALID,54,VALID,1.40781,
2010-08-15, 00:27:04,VALID,1000.79,VALID,0,VALID,88.6791,VALID,0,VALID,23.4067,VALID,71,VALID,1.68359,
2010-08-15, 00:28:04,VALID,1000.82,VALID,0,VALID,88.8164,VALID,0,VALID,23.4085,VALID,66,VALID,1.59297,
2010-08-15, 00:29:04,VALID,1000.78,VALID,0,VALID,88.9156,VALID,0,VALID,23.35,VALID,60,VALID,1.69297,
2010-08-15, 00:30:04,VALID,1000.78,VALID,0,VALID,89.0834,VALID,0,VALID,23.311,VALID,55,VALID,1.61992,
2010-08-15, 00:31:04,VALID,1000.78,VALID,0,VALID,89.2437,VALID,0,VALID,23.2719,VALID,77,VALID,0.976563,
2010-08-15, 00:32:04,VALID,1000.79,VALID,0,VALID,89.3352,VALID,0,VALID,23.2134,VALID,94,VALID,1.05469,
2010-08-15, 00:33:04,VALID,1000.8,VALID,0,VALID,89.3963,VALID,0,VALID,23.1744,VALID,101,VALID,0.927344,
2010-08-15, 00:34:04,VALID,1000.81,VALID,0,VALID,89.442,VALID,0,VALID,23.1549,VALID,103,VALID,1.00508,
2010-08-15, 00:35:04,VALID,1000.81,VALID,0,VALID,89.6175,VALID,0,VALID,23.1354,VALID,103,VALID,0.946875,
2010-08-15, 00:36:04,VALID,1000.83,VALID,0,VALID,89.6709,VALID,0,VALID,23.1159,VALID,103,VALID,0.2875,
2010-08-15, 00:37:04,VALID,1000.77,VALID,0,VALID,89.7777,VALID,0,VALID,23.0964,VALID,97,VALID,0.467578,
2010-08-15, 00:38:04,VALID,1000.76,VALID,0,VALID,89.854,VALID,0,VALID,23.0556,VALID,26,VALID,0.852734,
2010-08-15, 00:39:05,VALID,1000.75,VALID,0,VALID,89.8006,VALID,0,VALID,23.0361,VALID,20,VALID,0.848828,
2010-08-15, 00:40:05,VALID,1000.73,VALID,0,VALID,89.854,VALID,0,VALID,23.0166,VALID,28,VALID,0.760547,
2010-08-15, 00:41:05,VALID,1000.68,VALID,0,VALID,89.8769,VALID,0,VALID,22.9988,VALID,28,VALID,0.760938,
2010-08-15, 00:42:05,VALID,1000.65,VALID,0,VALID,90.0219,VALID,0,VALID,22.9988,VALID,20,VALID,1.01328,
2010-08-15, 00:43:05,VALID,1000.61,VALID,0,VALID,90.0753,VALID,0,VALID,22.9598,VALID,353,VALID,0.915234,
2010-08-15, 00:44:05,VALID,1000.6,VALID,0,VALID,90.3728,VALID,0,VALID,22.9598,VALID,331,VALID,0.861328,
2010-08-15, 00:45:05,VALID,1000.6,VALID,0,VALID,90.3957,VALID,0,VALID,22.9598,VALID,292,VALID,0.272656,
2010-08-15, 00:46:05,VALID,1000.58,VALID,0,VALID,90.4568,VALID,0,VALID,22.9403,VALID,292,VALID,0.520312,
2010-08-15, 00:47:05,VALID,1000.59,VALID,0,VALID,90.556,VALID,0,VALID,22.9403,VALID,292,VALID,0.2125,
2010-08-15, 00:48:05,VALID,1000.62,VALID,0,VALID,90.5407,VALID,0,VALID,22.9615,VALID,292,VALID,0.182812,
2010-08-15, 00:49:05,VALID,1000.68,VALID,0,VALID,90.4263,VALID,0,VALID,22.9225,VALID,116,VALID,1.10234,
2010-08-15, 00:50:05,VALID,1000.69,VALID,0,VALID,90.4491,VALID,0,VALID,22.8623,VALID,116,VALID,0.902734,
2010-08-15, 00:51:05,VALID,1000.71,VALID,0,VALID,90.5712,VALID,0,VALID,22.8427,VALID,115,VALID,1.66055,
2010-08-15, 00:52:05,VALID,1000.7,VALID,0,VALID,90.5102,VALID,0,VALID,22.8818,VALID,111,VALID,1.57383,
2010-08-15, 00:53:05,VALID,1000.72,VALID,0,VALID,90.3728,VALID,0,VALID,22.8818,VALID,115,VALID,1.76328,
2010-08-15, 00:54:05,VALID,1000.72,VALID,0,VALID,90.1668,VALID,0,VALID,22.919,VALID,140,VALID,1.95586,
2010-08-15, 00:55:05,VALID,1000.71,VALID,0,VALID,90.2203,VALID,0,VALID,22.9971,VALID,134,VALID,1.93906,
2010-08-15, 00:56:05,VALID,1000.7,VALID,0,VALID,90.1058,VALID,0,VALID,23.0964,VALID,127,VALID,1.93672,
2010-08-15, 00:57:05,VALID,1000.71,VALID,0,VALID,89.793,VALID,0,VALID,23.1549,VALID,127,VALID,1.48945,
2010-08-15, 00:58:05,VALID,1000.66,VALID,0,VALID,89.7014,VALID,0,VALID,23.1726,VALID,107,VALID,1.33828,
2010-08-15, 00:59:05,VALID,1000.63,VALID,0,VALID,89.6328,VALID,0,VALID,23.2312,VALID,93,VALID,1.35391,
2010-08-15, 01:00:05,VALID,1000.61,VALID,0,VALID,89.3581,VALID,0,VALID,23.2719,VALID,62,VALID,0.505078,
2010-08-15, 01:01:05,VALID,1000.66,VALID,0,VALID,89.2818,VALID,0,VALID,23.2915,VALID,233,VALID,1.44297,
2010-08-15, 01:02:05,VALID,1000.68,VALID,0,VALID,89.2589,VALID,0,VALID,23.3695,VALID,221,VALID,1.62695,
2010-08-15, 01:03:05,VALID,1000.65,VALID,0,VALID,88.9232,VALID,0,VALID,23.5256,VALID,199,VALID,0.706641,
2010-08-15, 01:04:05,VALID,1000.5,VALID,0,VALID,87.9695,VALID,0,VALID,23.5823,VALID,64,VALID,0.950391,
2010-08-15, 01:05:05,VALID,1000.45,VALID,0,VALID,86.6496,VALID,0,VALID,23.7579,VALID,28,VALID,2.58633,
2010-08-15, 01:06:05,VALID,1000.52,VALID,0,VALID,86.3444,VALID,0,VALID,23.8378,VALID,292,VALID,2.77422,
2010-08-15, 01:07:05,VALID,1000.5,VALID,0,VALID,86.0392,VALID,0,VALID,23.9354,VALID,309,VALID,1.44258,
2010-08-15, 01:08:05,VALID,1000.51,VALID,0,VALID,85.9553,VALID,0,VALID,23.9744,VALID,290,VALID,0.975781,
2010-08-15, 01:09:05,VALID,1000.44,VALID,0,VALID,85.612,VALID,0,VALID,23.9549,VALID,84,VALID,0.722266,
2010-08-15, 01:10:05,VALID,1000.45,VALID,0,VALID,84.6125,VALID,0,VALID,24.0329,VALID,287,VALID,1.0043,
2010-08-15, 01:11:05,VALID,1000.44,VALID,0,VALID,82.6669,VALID,0,VALID,24.3647,VALID,297,VALID,1.72734,
2010-08-15, 01:12:05,VALID,1000.4,VALID,0,VALID,80.5688,VALID,0,VALID,24.677,VALID,225,VALID,2.71484,
2010-08-15, 01:13:05,VALID,1000.4,VALID,0,VALID,77.3033,VALID,0,VALID,25.3993,VALID,250,VALID,2.24375,
2010-08-15, 01:14:05,VALID,1000.43,VALID,0,VALID,75.4035,VALID,0,VALID,25.8288,VALID,245,VALID,1.50039,
2010-08-15, 01:15:05,VALID,1000.39,VALID,0,VALID,74.1523,VALID,0,VALID,26.0611,VALID,223,VALID,1.79844,
2010-08-15, 01:16:05,VALID,1000.35,VALID,0,VALID,74.1446,VALID,0,VALID,26.1412,VALID,214,VALID,1.89727,
2010-08-15, 01:17:05,VALID,1000.32,VALID,0,VALID,73.7327,VALID,0,VALID,26.1998,VALID,210,VALID,1.86563,
2010-08-15, 01:18:05,VALID,1000.3,VALID,0,VALID,73.3817,VALID,0,VALID,26.2564,VALID,211,VALID,2.63945,
2010-08-15, 01:19:05,VALID,1000.33,VALID,0,VALID,72.2372,VALID,0,VALID,26.5513,VALID,195,VALID,3.94922,
2010-08-15, 01:20:05,VALID,1000.29,VALID,0,VALID,71.1538,VALID,0,VALID,26.7466,VALID,182,VALID,5.60586,
2010-08-15, 01:21:05,VALID,1000.32,VALID,0,VALID,70.9326,VALID,0,VALID,26.7661,VALID,189,VALID,4.39531,
2010-08-15, 01:22:05,VALID,1000.3,VALID,0,VALID,70.78,VALID,0,VALID,26.9029,VALID,187,VALID,3.86328,
2010-08-15, 01:23:05,VALID,1000.31,VALID,0,VALID,70.0628,VALID,0,VALID,26.9615,VALID,191,VALID,3.94922,
2010-08-15, 01:24:05,VALID,1000.26,VALID,0,VALID,69.2464,VALID,0,VALID,27.0787,VALID,192,VALID,5.00977,
2010-08-15, 01:25:05,VALID,1000.3,VALID,0,VALID,68.8344,VALID,0,VALID,27.1373,VALID,198,VALID,3.69766,
2010-08-15, 01:26:05,VALID,1000.33,VALID,0,VALID,69.544,VALID,0,VALID,27.1157,VALID,186,VALID,3.42578,
2010-08-15, 01:27:05,VALID,1000.37,VALID,0,VALID,69.6432,VALID,0,VALID,27.0591,VALID,183,VALID,2.66016,
2010-08-15, 01:28:05,VALID,1000.4,VALID,0,VALID,70.5664,VALID,0,VALID,26.9615,VALID,160,VALID,3.77461,
2010-08-15, 01:29:05,VALID,1000.42,VALID,0,VALID,72.5806,VALID,0,VALID,26.6469,VALID,131,VALID,1.60234,
2010-08-15, 01:30:05,VALID,1000.5,VALID,0,VALID,75.8308,VALID,0,VALID,26.1607,VALID,104,VALID,2.19297,
2010-08-15, 01:31:05,VALID,1000.51,VALID,0,VALID,78.9132,VALID,0,VALID,25.4969,VALID,111,VALID,1.71445,
2010-08-15, 01:32:05,VALID,1000.53,VALID,0,VALID,81.4996,VALID,0,VALID,24.9112,VALID,113,VALID,2.26875,
2010-08-15, 01:33:05,VALID,1000.54,VALID,0,VALID,83.201,VALID,0,VALID,24.4818,VALID,119,VALID,1.5543,
2010-08-15, 01:34:05,VALID,1000.55,VALID,0,VALID,84.4294,VALID,0,VALID,24.1891,VALID,124,VALID,1.39727,
2010-08-15, 01:35:05,VALID,1000.57,VALID,0,VALID,85.1923,VALID,0,VALID,23.9726,VALID,124,VALID,1.66484,
2010-08-15, 01:36:05,VALID,1000.58,VALID,0,VALID,85.7112,VALID,0,VALID,23.8768,VALID,125,VALID,1.26406,
2010-08-15, 01:37:05,VALID,1000.61,VALID,0,VALID,86.085,VALID,0,VALID,23.8183,VALID,114,VALID,1.82695,
2010-08-15, 01:38:05,VALID,1000.6,VALID,0,VALID,86.3292,VALID,0,VALID,23.7597,VALID,121,VALID,1.07773,
2010-08-15, 01:39:05,VALID,1000.58,VALID,0,VALID,86.8403,VALID,0,VALID,23.7207,VALID,114,VALID,1.29336,
2010-08-15, 01:40:05,VALID,1000.57,VALID,0,VALID,87.2829,VALID,0,VALID,23.6622,VALID,120,VALID,0.884766,
2010-08-15, 01:41:05,VALID,1000.57,VALID,0,VALID,87.6872,VALID,0,VALID,23.5823,VALID,138,VALID,1.42578,
2010-08-15, 01:42:05,VALID,1000.51,VALID,0,VALID,87.9314,VALID,0,VALID,23.5841,VALID,78,VALID,1.16055,
2010-08-15, 01:43:05,VALID,1000.48,VALID,0,VALID,88.0229,VALID,0,VALID,23.5451,VALID,77,VALID,0.928516,
2010-08-15, 01:44:05,VALID,1000.51,VALID,0,VALID,87.7406,VALID,0,VALID,23.5256,VALID,68,VALID,1.07461,
2010-08-15, 01:45:05,VALID,1000.48,VALID,0,VALID,87.1989,VALID,0,VALID,23.5841,VALID,72,VALID,1.65859,
2010-08-15, 01:46:05,VALID,1000.47,VALID,0,VALID,86.7946,VALID,0,VALID,23.6622,VALID,82,VALID,1.88086,
2010-08-15, 01:47:05,VALID,1000.45,VALID,0,VALID,86.4283,VALID,0,VALID,23.7012,VALID,73,VALID,1.9543,
2010-08-15, 01:48:05,VALID,1000.44,VALID,0,VALID,86.2376,VALID,0,VALID,23.7207,VALID,64,VALID,1.80742,
2010-08-15, 01:49:05,VALID,1000.43,VALID,0,VALID,86.0469,VALID,0,VALID,23.7597,VALID,69,VALID,1.55117,
2010-08-15, 01:50:05,VALID,1000.39,VALID,0,VALID,86.085,VALID,0,VALID,23.7793,VALID,64,VALID,0.955469,
2010-08-15, 01:51:05,VALID,1000.37,VALID,0,VALID,86.0926,VALID,0,VALID,23.7402,VALID,44,VALID,0.689453,
2010-08-15, 01:52:05,VALID,1000.31,VALID,0,VALID,86.1308,VALID,0,VALID,23.7207,VALID,45,VALID,0.203906,
2010-08-15, 01:53:05,VALID,1000.23,VALID,0,VALID,86.2834,VALID,0,VALID,23.6817,VALID,296,VALID,0.578516,
2010-08-15, 01:54:05,VALID,1000.23,VALID,0,VALID,86.6267,VALID,0,VALID,23.6232,VALID,309,VALID,0.814844,
2010-08-15, 01:55:05,VALID,1000.19,VALID,0,VALID,86.6725,VALID,0,VALID,23.6036,VALID,291,VALID,0.351563,
2010-08-15, 01:56:05,VALID,1000.23,VALID,0,VALID,86.8098,VALID,0,VALID,23.5841,VALID,286,VALID,0.670703,
2010-08-15, 01:57:05,VALID,1000.2,VALID,0,VALID,86.7564,VALID,0,VALID,23.6036,VALID,23,VALID,0.805859,
2010-08-15, 01:58:05,VALID,1000.19,VALID,0,VALID,86.4665,VALID,0,VALID,23.6622,VALID,34,VALID,0.851172,
2010-08-15, 01:59:05,VALID,1000.17,VALID,0,VALID,86.3292,VALID,0,VALID,23.6622,VALID,304,VALID,0.726953,
2010-08-15, 02:00:05,VALID,1000.17,VALID,0,VALID,86.2071,VALID,0,VALID,23.6817,VALID,232,VALID,0.278125,
2010-08-15, 02:01:05,VALID,1000.16,VALID,0,VALID,86.4207,VALID,0,VALID,23.7012,VALID,232,VALID,0.391016,
2010-08-15, 02:02:05,VALID,1000.11,VALID,0,VALID,86.2834,VALID,0,VALID,23.7012,VALID,294,VALID,0.813672,
2010-08-15, 02:03:05,VALID,1000.09,VALID,0,VALID,86.3597,VALID,0,VALID,23.7207,VALID,296,VALID,0.701953,
2010-08-15, 02:04:05,VALID,1000.07,VALID,0,VALID,86.3139,VALID,0,VALID,23.7207,VALID,296,VALID,0.814062,
2010-08-15, 02:05:05,VALID,1000.06,VALID,0,VALID,86.4283,VALID,0,VALID,23.7012,VALID,301,VALID,0.560938,
2010-08-15, 02:06:05,VALID,1000.05,VALID,0,VALID,86.4665,VALID,0,VALID,23.7012,VALID,300,VALID,0.732031,
2010-08-15, 02:07:05,VALID,1000.1,VALID,0,VALID,86.2529,VALID,0,VALID,23.6622,VALID,240,VALID,0.325,
2010-08-15, 02:08:05,VALID,1000.12,VALID,0,VALID,85.6654,VALID,0,VALID,23.7207,VALID,99,VALID,0.725781,
2010-08-15, 02:09:05,VALID,1000.17,VALID,0,VALID,83.3612,VALID,0,VALID,23.8768,VALID,182,VALID,1.5625,
2010-08-15, 02:10:05,VALID,1000.21,VALID,0,VALID,84.3989,VALID,0,VALID,24.0329,VALID,96,VALID,1.81328,
2010-08-15, 02:11:05,VALID,1000.23,VALID,0,VALID,85.0092,VALID,0,VALID,23.9549,VALID,86,VALID,1.775,
2010-08-15, 02:12:05,VALID,1000.26,VALID,0,VALID,85.4823,VALID,0,VALID,23.8768,VALID,105,VALID,1.58164,
2010-08-15, 02:13:05,VALID,1000.24,VALID,0,VALID,85.7417,VALID,0,VALID,23.7988,VALID,117,VALID,1.21445,
2010-08-15, 02:14:05,VALID,1000.29,VALID,0,VALID,85.0321,VALID,0,VALID,23.7793,VALID,154,VALID,1.40195,
2010-08-15, 02:15:05,VALID,1000.3,VALID,0,VALID,82.9035,VALID,0,VALID,24.0134,VALID,159,VALID,2.01797,
2010-08-15, 02:16:05,VALID,1000.3,VALID,0,VALID,82.026,VALID,0,VALID,24.3257,VALID,126,VALID,1.74023,
2010-08-15, 02:17:05,VALID,1000.32,VALID,0,VALID,81.698,VALID,0,VALID,24.4019,VALID,132,VALID,1.20898,
2010-08-15, 02:18:05,VALID,1000.31,VALID,0,VALID,81.08,VALID,0,VALID,24.4818,VALID,168,VALID,1.47969,
2010-08-15, 02:19:05,VALID,1000.31,VALID,0,VALID,80.4772,VALID,0,VALID,24.638,VALID,168,VALID,0.823828,
2010-08-15, 02:20:05,VALID,1000.29,VALID,0,VALID,80.5612,VALID,0,VALID,24.716,VALID,160,VALID,0.301172,
2010-08-15, 02:21:05,VALID,1000.28,VALID,0,VALID,81.3012,VALID,0,VALID,24.6361,VALID,40,VALID,0.873047,
2010-08-15, 02:22:05,VALID,1000.32,VALID,0,VALID,82.4533,VALID,0,VALID,24.4818,VALID,39,VALID,0.721875,
2010-08-15, 02:23:05,VALID,1000.28,VALID,0,VALID,83.1629,VALID,0,VALID,24.3257,VALID,39,VALID,0.650391,
2010-08-15, 02:24:05,VALID,1000.25,VALID,0,VALID,83.7885,VALID,0,VALID,24.1677,VALID,39,VALID,0.770703,
2010-08-15, 02:25:05,VALID,1000.19,VALID,0,VALID,84.7117,VALID,0,VALID,24.0329,VALID,32,VALID,1.40391,
2010-08-15, 02:26:05,VALID,1000.2,VALID,0,VALID,85.1389,VALID,0,VALID,23.8963,VALID,30,VALID,1.16875,
2010-08-15, 02:27:05,VALID,1000.18,VALID,0,VALID,85.4823,VALID,0,VALID,23.7988,VALID,47,VALID,1.41445,
2010-08-15, 02:28:05,VALID,1000.17,VALID,0,VALID,85.9706,VALID,0,VALID,23.6622,VALID,56,VALID,1.61953,
2010-08-15, 02:29:05,VALID,1000.11,VALID,0,VALID,86.4894,VALID,0,VALID,23.5646,VALID,33,VALID,1.5707,
2010-08-15, 02:30:05,VALID,1000.09,VALID,0,VALID,86.6343,VALID,0,VALID,23.4866,VALID,10,VALID,1.43086,
2010-08-15, 02:31:05,VALID,1000.1,VALID,0,VALID,86.7488,VALID,0,VALID,23.4085,VALID,1,VALID,0.563281,
2010-08-15, 02:32:05,VALID,1000.09,VALID,0,VALID,87.1684,VALID,0,VALID,23.35,VALID,40,VALID,0.710938,
2010-08-15, 02:33:05,VALID,1000.09,VALID,0,VALID,87.5499,VALID,0,VALID,23.2915,VALID,43,VALID,1.17422,
2010-08-15, 02:34:05,VALID,1000.08,VALID,0,VALID,87.5804,VALID,0,VALID,23.2312,VALID,28,VALID,0.875391,
2010-08-15, 02:35:05,VALID,1000.11,VALID,0,VALID,87.6338,VALID,0,VALID,23.2329,VALID,32,VALID,0.798437,
2010-08-15, 02:36:05,VALID,1000.07,VALID,0,VALID,87.8551,VALID,0,VALID,23.1939,VALID,31,VALID,0.842969,
2010-08-15, 02:37:05,VALID,1000.01,VALID,0,VALID,87.9924,VALID,0,VALID,23.1549,VALID,15,VALID,1.13945,
2010-08-15, 02:38:05,VALID,1000.05,VALID,0,VALID,88.084,VALID,0,VALID,23.1159,VALID,10,VALID,0.852734,
2010-08-15, 02:39:05,VALID,1000.08,VALID,0,VALID,88.1221,VALID,0,VALID,23.1159,VALID,42,VALID,0.770703,
2010-08-15, 02:40:05,VALID,1000.09,VALID,0,VALID,88.6028,VALID,0,VALID,23.1159,VALID,74,VALID,0.875781,
2010-08-15, 02:41:05,VALID,1000.08,VALID,0,VALID,88.702,VALID,0,VALID,23.0964,VALID,73,VALID,0.299609,
2010-08-15, 02:42:05,VALID,1000.08,VALID,0,VALID,88.7859,VALID,0,VALID,23.0556,VALID,73,VALID,0.0742188,
2010-08-15, 02:43:05,VALID,1000.06,VALID,0,VALID,88.9766,VALID,0,VALID,23.0769,VALID,73,VALID,0.359375,
2010-08-15, 02:44:05,VALID,1000.08,VALID,0,VALID,89.1445,VALID,0,VALID,23.0556,VALID,73,VALID,0.530469,
2010-08-15, 02:45:05,VALID,1000.05,VALID,0,VALID,89.0377,VALID,0,VALID,23.0769,VALID,73,VALID,0.325391,
2010-08-15, 02:46:05,VALID,1000.03,VALID,0,VALID,89.114,VALID,0,VALID,23.0769,VALID,39,VALID,0.534375,
2010-08-15, 02:47:05,VALID,1000.05,VALID,0,VALID,89.0911,VALID,0,VALID,23.0556,VALID,30,VALID,0.564844,
2010-08-15, 02:48:05,VALID,1000.04,VALID,0,VALID,89.2513,VALID,0,VALID,23.0573,VALID,30,VALID,0.508594,
2010-08-15, 02:49:05,VALID,1000.02,VALID,0,VALID,89.3581,VALID,0,VALID,23.0573,VALID,30,VALID,0.540234,
2010-08-15, 02:50:05,VALID,1000.05,VALID,0,VALID,89.4497,VALID,0,VALID,23.0378,VALID,30,VALID,0.715625,
2010-08-15, 02:51:05,VALID,1000.02,VALID,0,VALID,89.5107,VALID,0,VALID,23.0378,VALID,10,VALID,1.13633,
2010-08-15, 02:52:05,VALID,999.984,VALID,0,VALID,89.526,VALID,0,VALID,23.0166,VALID,353,VALID,1.36328,
2010-08-15, 02:53:05,VALID,1000.01,VALID,0,VALID,89.732,VALID,0,VALID,23.0183,VALID,337,VALID,0.996094,
2010-08-15, 02:54:05,VALID,1000.02,VALID,0,VALID,89.9685,VALID,0,VALID,22.9988,VALID,312,VALID,0.748828,
2010-08-15, 02:55:05,VALID,1000.02,VALID,0,VALID,90.1516,VALID,0,VALID,22.9988,VALID,354,VALID,0.966406,
2010-08-15, 02:56:05,VALID,1000.01,VALID,0,VALID,90.0829,VALID,0,VALID,22.9793,VALID,354,VALID,0.523047,
2010-08-15, 02:57:05,VALID,1000.02,VALID,0,VALID,90.0982,VALID,0,VALID,22.9793,VALID,354,VALID,0.8625,
2010-08-15, 02:58:05,VALID,1000.02,VALID,0,VALID,90.0371,VALID,0,VALID,22.9776,VALID,347,VALID,0.890234,
2010-08-15, 02:59:05,VALID,999.983,VALID,0,VALID,89.8998,VALID,0,VALID,22.9988,VALID,347,VALID,0.490625,
2010-08-15, 03:00:05,VALID,1000.01,VALID,0,VALID,89.8464,VALID,0,VALID,23.0183,VALID,302,VALID,0.629687,
2010-08-15, 03:01:05,VALID,999.976,VALID,0,VALID,89.4878,VALID,0,VALID,23.0378,VALID,119,VALID,0.773438,
2010-08-15, 03:02:05,VALID,999.961,VALID,0,VALID,89.3886,VALID,0,VALID,23.0166,VALID,338,VALID,0.765234,
2010-08-15, 03:03:05,VALID,999.957,VALID,0,VALID,89.2894,VALID,0.112286,VALID,23.1159,VALID,306,VALID,1.16641,
2010-08-15, 03:04:05,VALID,999.984,VALID,0,VALID,89.1521,VALID,0,VALID,23.1354,VALID,299,VALID,1.19023,
2010-08-15, 03:05:05,VALID,999.987,VALID,0,VALID,88.8851,VALID,0,VALID,23.1939,VALID,282,VALID,0.749609,
2010-08-15, 03:06:05,VALID,999.995,VALID,0,VALID,88.6943,VALID,0,VALID,23.1921,VALID,266,VALID,0.346875,
2010-08-15, 03:07:05,VALID,1000.03,VALID,0,VALID,88.6104,VALID,0,VALID,23.2329,VALID,268,VALID,0.4375,
2010-08-15, 03:08:05,VALID,1000.03,VALID,0,VALID,88.496,VALID,0,VALID,23.2329,VALID,116,VALID,0.598828,
2010-08-15, 03:09:05,VALID,1000.04,VALID,0,VALID,88.2823,VALID,0,VALID,23.1921,VALID,111,VALID,1.375,
2010-08-15, 03:10:05,VALID,999.997,VALID,0,VALID,88.206,VALID,0,VALID,23.1921,VALID,112,VALID,0.698438,
2010-08-15, 03:11:05,VALID,999.957,VALID,0,VALID,88.0916,VALID,0,VALID,23.2134,VALID,112,VALID,0.160547,
2010-08-15, 03:12:05,VALID,999.944,VALID,0,VALID,88.084,VALID,0,VALID,23.1921,VALID,112,VALID,0.292578,
2010-08-15, 03:13:05,VALID,999.927,VALID,0,VALID,88.084,VALID,0,VALID,23.1921,VALID,112,VALID,0,
2010-08-15, 03:14:05,VALID,999.974,VALID,0,VALID,88.1374,VALID,0,VALID,23.1726,VALID,112,VALID,0,
2010-08-15, 03:15:05,VALID,999.961,VALID,0,VALID,88.1755,VALID,0,VALID,23.1939,VALID,112,VALID,0,
2010-08-15, 03:16:05,VALID,999.988,VALID,0,VALID,88.1145,VALID,0,VALID,23.1726,VALID,112,VALID,0.425,
2010-08-15, 03:17:05,VALID,999.984,VALID,0,VALID,88.412,VALID,0,VALID,23.1549,VALID,101,VALID,1.23164,
2010-08-15, 03:18:05,VALID,1000.03,VALID,0,VALID,88.4197,VALID,0,VALID,23.1531,VALID,96,VALID,1.72578,
2010-08-15, 03:19:05,VALID,999.994,VALID,0,VALID,88.7325,VALID,0,VALID,23.1531,VALID,97,VALID,1.79453,
2010-08-15, 03:20:05,VALID,999.969,VALID,0,VALID,89.1826,VALID,0,VALID,23.1354,VALID,101,VALID,1.25781,
2010-08-15, 03:21:05,VALID,999.963,VALID,0,VALID,89.4878,VALID,0,VALID,23.0946,VALID,89,VALID,0.860156,
2010-08-15, 03:22:05,VALID,999.952,VALID,0,VALID,89.732,VALID,0,VALID,23.0556,VALID,98,VALID,1.24727,
2010-08-15, 03:23:04,VALID,999.92,VALID,0,VALID,89.9151,VALID,0.112286,VALID,23.0556,VALID,75,VALID,1.025,
2010-08-15, 03:24:04,VALID,999.955,VALID,0,VALID,90.0219,VALID,0,VALID,23.0573,VALID,89,VALID,0.958594,
2010-08-15, 03:25:04,VALID,999.913,VALID,0,VALID,90.1363,VALID,0,VALID,23.0166,VALID,79,VALID,0.876172,
2010-08-15, 03:26:04,VALID,999.939,VALID,0,VALID,90.1821,VALID,0,VALID,23.0166,VALID,80,VALID,0.658203,
2010-08-15, 03:27:04,VALID,999.911,VALID,0,VALID,90.1592,VALID,0,VALID,23.0183,VALID,80,VALID,0.142578,
2010-08-15, 03:28:04,VALID,999.917,VALID,0,VALID,90.1211,VALID,0,VALID,22.9776,VALID,78,VALID,0.359766,
2010-08-15, 03:29:04,VALID,999.937,VALID,0,VALID,90.1821,VALID,0,VALID,22.9988,VALID,293,VALID,0.375,
2010-08-15, 03:30:04,VALID,999.92,VALID,0,VALID,90.1363,VALID,0,VALID,22.9988,VALID,293,VALID,0.496484,
2010-08-15, 03:31:04,VALID,999.957,VALID,0,VALID,90.2279,VALID,0,VALID,22.9793,VALID,293,VALID,0.479688,
2010-08-15, 03:32:04,VALID,999.924,VALID,0,VALID,90.1134,VALID,0,VALID,22.9793,VALID,293,VALID,0.425,
2010-08-15, 03:33:04,VALID,999.959,VALID,0,VALID,90.0829,VALID,0,VALID,22.9403,VALID,293,VALID,0.414844,
2010-08-15, 03:34:04,VALID,999.96,VALID,0,VALID,90.1974,VALID,0,VALID,22.9403,VALID,293,VALID,0.426562,
2010-08-15, 03:35:04,VALID,999.962,VALID,0,VALID,90.266,VALID,0,VALID,22.9403,VALID,293,VALID,0.360938,
2010-08-15, 03:36:04,VALID,999.957,VALID,0,VALID,90.2203,VALID,0,VALID,22.8995,VALID,293,VALID,0.346875,
2010-08-15, 03:37:04,VALID,999.999,VALID,0,VALID,90.144,VALID,0,VALID,22.9208,VALID,293,VALID,0.508984,
2010-08-15, 03:38:04,VALID,999.974,VALID,0,VALID,90.0448,VALID,0,VALID,22.9403,VALID,293,VALID,0.401563,
2010-08-15, 03:39:04,VALID,999.959,VALID,0,VALID,90.0295,VALID,0,VALID,22.919,VALID,301,VALID,0.502344,
2010-08-15, 03:40:04,VALID,999.953,VALID,0,VALID,89.999,VALID,0,VALID,22.9385,VALID,301,VALID,0.413672,
2010-08-15, 03:41:04,VALID,999.951,VALID,0,VALID,90.0295,VALID,0,VALID,22.9598,VALID,301,VALID,0.222266,
2010-08-15, 03:42:04,VALID,1000.02,VALID,0,VALID,89.8464,VALID,0,VALID,22.9385,VALID,62,VALID,1.10039,
2010-08-15, 03:43:04,VALID,1000.01,VALID,0,VALID,90.06,VALID,0,VALID,22.9208,VALID,65,VALID,2.24297,
2010-08-15, 03:44:04,VALID,1000.01,VALID,0,VALID,90.4797,VALID,0,VALID,22.9208,VALID,42,VALID,1.89258,
2010-08-15, 03:45:04,VALID,999.98,VALID,0,VALID,90.5483,VALID,0,VALID,22.9013,VALID,55,VALID,1.25352,
2010-08-15, 03:46:04,VALID,999.967,VALID,0,VALID,90.5712,VALID,0,VALID,22.88,VALID,49,VALID,1.07969,